Location: De Greiden
(52.9496°N, 5.9137°E)
Time: 22:56:05
(UTC+00:00)

COSMOS 2406 - Pass Details

Date: 24 January 2021
Orbit: 841 x 865 km, 71.0° (Epoch: 01 March)

Event Time Altitude Azimuth Distance (km) Brightness Sun altitude
Rises 18:20:57 0° 328° (NNW) 3,461 6.8 -19.9°
Reaches altitude 10° 18:23:25 10° 328° (NNW) 2,520 6.0 -20.3°
Maximum altitude 18:29:14 85° 242° (WSW) 875 3.2 -21.1°
Enters shadow 18:34:33 12° 153° (SSE) 2,330 5.3 -21.9°
